This demonstration page uses our WeatherBlox Daily Observations layout. Learn more.

Left ArrowRight Arrow

Hourly Observations for September 1, 2021

Temp ( °F °C ) Dew Point ( °F °C ) Humidity (%) Winds ( mph kmh ) Pressure ( in mb ) Visibility ( mi km ) Precip ( " mm )
12:15 am 00:15 Clear 65 18.6 64 17.5 93 93 ESE 10 17 29.79 1009 10 16 N/A
12:35 am 00:35 Clear 65 18.5 64 17.5 94 94 ESE 7 11 29.81 1009 10 16 N/A
12:55 am 00:55 Clear 65 18.2 63 17.4 95 95 ESE 7 11 29.81 1010 10 16 N/A
1:15 am 01:15 Clear 65 18.2 63 17.3 95 95 E 8 13 29.81 1010 10 16 N/A
1:35 am 01:35 Partly Cloudy 65 18.1 63 17.2 95 95 ESE 7 11 29.80 1009 10 16 N/A
1:55 am 01:55 Clear 64 17.9 63 17 95 95 E 6 9 29.80 1009 10 16 N/A
2:15 am 02:15 Partly Cloudy 64 17.8 63 17 95 95 E 6 9 29.81 1009 10 16 N/A
2:35 am 02:35 Mostly Cloudy 64 17.8 63 17 95 95 E 3 6 29.81 1009 10 16 N/A
2:55 am 02:55 Cloudy 64 18 63 17.2 95 95 E 6 9 29.80 1009 10 16 N/A
3:15 am 03:15 Cloudy 65 18.1 63 17.2 95 95 E 7 11 29.79 1009 10 16 N/A
3:35 am 03:35 Cloudy 65 18.1 63 17.1 94 94 E 7 11 29.80 1009 10 16 N/A
3:55 am 03:55 Cloudy 65 18.1 63 17.1 94 94 E 7 11 29.80 1009 10 16 N/A
4:15 am 04:15 Cloudy 65 18.2 63 17.2 94 94 E 7 11 29.80 1009 10 16 N/A
4:35 am 04:35 Cloudy 65 18.3 63 17.2 93 93 ESE 9 15 29.80 1009 10 16 N/A
4:55 am 04:55 Cloudy 65 18.5 63 17.4 93 93 ESE 8 13 29.80 1009 10 16 N/A
5:15 am 05:15 Cloudy 65 18.5 63 17.3 93 93 E 8 13 29.80 1009 10 16 N/A
5:35 am 05:35 Cloudy 65 18.6 63 17.4 93 93 ESE 12 19 29.80 1009 10 16 N/A
5:55 am 05:55 Cloudy 65 18.5 63 17.2 92 92 ESE 9 15 29.80 1009 10 16 N/A
6:15 am 06:15 Cloudy 65 18.1 63 17.1 94 94 ESE 9 15 29.80 1009 10 16 N/A
6:35 am 06:35 Cloudy 65 18.1 63 17.2 95 95 ESE 9 15 29.81 1010 10 16 N/A
6:55 am 06:55 Cloudy 65 18.2 63 17.3 95 95 ESE 10 17 29.82 1010 10 16 N/A
7:15 am 07:15 Cloudy 65 18.2 63 17.4 95 95 ESE 12 19 29.82 1010 10 16 N/A
7:35 am 07:35 Cloudy 65 18.3 64 17.5 95 95 ESE 10 17 29.82 1010 10 16 N/A
7:55 am 07:55 Cloudy 65 18.5 64 17.5 94 94 ESE 12 19 29.83 1010 10 16 N/A
8:15 am 08:15 Cloudy 65 18.5 64 17.5 94 94 ESE 12 19 29.83 1010 10 16 N/A
8:35 am 08:35 Cloudy 65 18.6 64 17.5 93 93 ESE 13 20 29.83 1010 10 16 N/A
8:55 am 08:55 Cloudy 66 18.8 64 17.5 92 92 SE 10 17 29.83 1010 10 16 N/A
9:15 am 09:15 Cloudy 66 19 64 17.8 93 93 SE 13 20 29.83 1010 10 16 N/A
9:35 am 09:35 Cloudy 67 19.2 64 17.8 92 92 SE 15 24 29.82 1010 10 16 N/A
9:55 am 09:55 Cloudy 67 19.5 64 18 91 91 SE 14 22 29.82 1010 10 16 N/A
10:15 am 10:15 Cloudy 67 19.6 65 18.2 92 92 SE 13 20 29.83 1010 10 16 N/A
10:35 am 10:35 Cloudy 67 19.7 65 18.2 91 91 SE 12 19 29.83 1010 10 16 N/A
10:55 am 10:55 Cloudy 68 20 65 18.5 91 91 SE 14 22 29.83 1010 10 16 N/A
11:15 am 11:15 Cloudy 69 20.3 65 18.6 90 90 SE 13 20 29.82 1010 10 16 N/A
11:35 am 11:35 Cloudy 69 20.6 66 18.8 89 89 SSE 13 20 29.83 1010 10 16 N/A
11:55 am 11:55 Cloudy 70 21 66 18.9 88 88 SE 12 19 29.83 1010 10 16 N/A
12:15 pm 12:15 Cloudy 70 21.2 66 19 87 87 SE 10 17 29.83 1010 10 16 N/A
12:35 pm 12:35 Cloudy 71 21.7 66 19.1 85 85 SE 12 19 29.82 1010 10 16 N/A
12:55 pm 12:55 Cloudy 72 22.2 67 19.3 84 84 SE 12 19 29.81 1009 10 16 N/A
1:15 pm 13:15 Cloudy 73 22.9 67 19.5 81 81 SE 12 19 29.79 1009 10 16 N/A
1:35 pm 13:35 Cloudy 74 23.1 67 19.7 81 81 ESE 13 20 29.79 1009 10 16 N/A
1:55 pm 13:55 Cloudy 74 23.6 68 19.9 80 80 ESE 14 22 29.78 1008 10 16 N/A
2:15 pm 14:15 Mostly Cloudy 75 24 68 20 78 78 ESE 14 22 29.78 1008 10 16 N/A
2:35 pm 14:35 Partly Cloudy 76 24.7 68 20.1 76 76 SE 13 20 29.76 1008 10 16 N/A
2:55 pm 14:55 Partly Cloudy 77 25 69 20.5 76 76 SE 14 22 29.76 1008 10 16 N/A
3:15 pm 15:15 Partly Cloudy 78 25.4 69 20.6 75 75 SE 15 24 29.74 1007 10 16 N/A
3:35 pm 15:35 Partly Cloudy 78 25.5 69 20.6 74 74 SE 15 24 29.74 1007 10 16 N/A
3:55 pm 15:55 Partly Cloudy 78 25.8 69 20.7 74 74 SE 15 24 29.73 1007 10 16 N/A
4:15 pm 16:15 Sunny 79 26 69 20.8 73 73 SE 14 22 29.73 1007 10 16 N/A
4:35 pm 16:35 Partly Cloudy 79 26.2 70 21.1 74 74 SE 15 24 29.73 1007 10 16 N/A
4:55 pm 16:55 Partly Cloudy 79 26.2 70 21.1 74 74 SE 13 20 29.73 1007 10 16 N/A
5:15 pm 17:15 Sunny 79 26 70 20.9 74 74 SE 16 26 29.73 1007 10 16 N/A
5:35 pm 17:35 Sunny 79 25.9 70 21 74 74 ESE 15 24 29.73 1007 10 16 N/A
5:55 pm 17:55 Sunny 78 25.8 70 20.9 74 74 ESE 16 26 29.73 1007 10 16 N/A
6:15 pm 18:15 Sunny 78 25.6 70 21 76 76 ESE 15 24 29.72 1007 10 16 N/A
6:35 pm 18:35 Sunny 78 25.3 70 21 77 77 ESE 14 22 29.72 1007 10 16 N/A
6:55 pm 18:55 Sunny 77 25 70 21 79 79 ESE 12 19 29.73 1007 10 16 N/A
7:15 pm 19:15 Sunny 76 24.5 70 20.9 80 80 ESE 13 20 29.73 1007 10 16 N/A
7:35 pm 19:35 Sunny 75 24 69 20.8 82 82 ESE 13 20 29.75 1007 10 16 N/A
7:55 pm 19:55 Sunny 74 23.5 69 20.6 84 84 ESE 13 20 29.75 1007 10 16 N/A
8:15 pm 20:15 Clear 73 23 69 20.6 86 86 ESE 13 20 29.74 1007 10 16 N/A
8:35 pm 20:35 Clear 73 22.5 69 20.5 89 89 ESE 14 22 29.75 1007 10 16 N/A
8:55 pm 20:55 Clear 72 22.2 69 20.3 89 89 ESE 13 20 29.76 1008 10 16 N/A
9:15 pm 21:15 Clear 71 21.9 69 20.3 91 91 ESE 16 26 29.76 1008 10 16 N/A
9:35 pm 21:35 Clear 71 21.8 68 20.2 91 91 ESE 14 22 29.76 1008 10 16 N/A
10:15 pm 22:15 Clear 71 21.5 68 20.1 92 92 SE 15 24 29.78 1008 10 16 N/A
10:35 pm 22:35 Clear 71 21.5 68 20.2 92 92 SE 14 22 29.78 1008 10 16 N/A
10:55 pm 22:55 Clear 71 21.5 68 20.2 92 92 SE 15 24 29.78 1008 10 16 N/A
11:15 pm 23:15 Clear 71 21.5 68 20 91 91 SE 17 28 29.78 1008 10 16 N/A
11:35 pm 23:35 Clear 70 21.3 68 20 92 92 SE 14 22 29.77 1008 10 16 N/A
11:55 pm 23:55 Clear 70 21.3 68 20 92 92 SE 17 28 29.77 1008 10 16 N/A

Powered by AerisWeather